Tracking 19199 objects as of 25-Jun-2018
HD Live streaming from Space Station
objects crossing your sky now

SL-14 DEB

Track SL-14 DEB now!
10-day predictions


NORAD ID: 19450
Int'l Code: 1978-100AH
Perigee: 1,686.7 km
Apogee: 1,706.4 km
Inclination: 82.5 °
Period: 120.2 minutes
Semi major axis: 8067 km
RCS: 0.0566 m2 (small)
Launch date: October 26, 1978
Source: Commonwealth of Independent States (former USSR) (CIS)
Launch site: PLESETSK MISSILE AND SPACE COMPLEX (PKMTR)

Note: This is SATELLITE DEBRIS
aabbcc
Your satellite tracking list
Your tracking list is empty




NASA's NSSDC Master Catalog

Two Line Element Set (TLE):
1 19450U 78100AH  18175.92462103 +.00000013 +00000-0 +55894-4 0  9993
2 19450 082.5495 236.4040 0012220 344.7061 135.2459 11.98085768309469
Source of the keplerian elements: AFSPC